• In Russia
  • List of Countries
  • For 7 days
  • Water Temperature
  • Satellite Maps
  • Weather Map
  • Weather Widgets
  • user-avatar
    Login

    Hourly Weather Mayrhofen

    Today, 23 January, Wednesday

    Time Temperature Precipitation Wind Pressure Humidity
    00:00 -12°C° 0 mm 1 mps 601 mmHg 66%
    01:00 -13°C° 0 mm 2 mps 600 mmHg 63%
    02:00 -12°C° 0 mm 1 mps 600 mmHg 64%
    03:00 -12°C° 0 mm 1 mps 599 mmHg 66%
    04:00 -12°C° 0 mm 1 mps 599 mmHg 67%
    05:00 -12°C° 0 mm 1 mps 598 mmHg 69%
    06:00 -12°C° 0 mm 1 mps 598 mmHg 71%
    07:00 -12°C° 0 mm 1 mps 598 mmHg 71%
    08:00 -11°C° 0 mm 1 mps 599 mmHg 74%
    09:00 -10°C° 0 mm 1 mps 599 mmHg 76%
    10:00 -9°C° 0 mm 1 mps 599 mmHg 79%
    11:00 -8°C° 0 mm 1 mps 599 mmHg 77%
    12:00 -7°C° 0 mm 1 mps 599 mmHg 76%
    13:00 -6°C° 0 mm 1 mps 599 mmHg 74%
    14:00 -6°C° 0 mm 1 mps 599 mmHg 78%
    15:00 -7°C° 0 mm 1 mps 599 mmHg 82%
    16:00 -7°C° 0 mm 1 mps 598 mmHg 86%
    17:00 -9°C° 0 mm 1 mps 598 mmHg 88%
    18:00 -11°C° 0 mm 0 mps 597 mmHg 90%
    19:00 -12°C° 0 mm 0 mps 597 mmHg 92%
    20:00 -13°C° 0 mm 0 mps 597 mmHg 91%
    21:00 -13°C° 0 mm 1 mps 597 mmHg 90%
    22:00 -14°C° 0 mm 1 mps 597 mmHg 89%
    23:00 -14°C° 0 mm 1 mps 598 mmHg 89%

    Tomorrow, 24 January, Thursday

    Time Temperature Precipitation Wind Pressure Humidity
    00:00 -14°C° 0 mm 1 mps 598 mmHg 89%
    01:00 -15°C° 0 mm 1 mps 598 mmHg 89%
    02:00 -15°C° 0 mm 1 mps 598 mmHg 89%
    03:00 -15°C° 0 mm 1 mps 598 mmHg 89%
    04:00 -15°C° 0 mm 1 mps 599 mmHg 89%
    05:00 -15°C° 0 mm 1 mps 599 mmHg 89%
    06:00 -15°C° 0 mm 1 mps 599 mmHg 89%
    07:00 -15°C° 0 mm 1 mps 599 mmHg 89%
    08:00 -14°C° 0 mm 1 mps 600 mmHg 89%
    09:00 -12°C° 0 mm 1 mps 602 mmHg 88%
    10:00 -11°C° 0 mm 1 mps 603 mmHg 87%
    11:00 -12°C° 0 mm 2 mps 603 mmHg 86%
    12:00 -10°C° 0 mm 2 mps 603 mmHg 85%
    13:00 -9°C° 0 mm 2 mps 603 mmHg 84%
    14:00 -9°C° 0 mm 2 mps 603 mmHg 86%
    15:00 -10°C° 0 mm 2 mps 603 mmHg 88%
    16:00 -10°C° 0 mm 2 mps 603 mmHg 91%
    17:00 -13°C° 0 mm 2 mps 603 mmHg 92%
    18:00 -14°C° 0 mm 2 mps 603 mmHg 94%
    19:00 -15°C° 0 mm 2 mps 603 mmHg 95%
    20:00 -16°C° 0 mm 2 mps 604 mmHg 95%
    21:00 -16°C° 0 mm 2 mps 604 mmHg 94%
    22:00 -17°C° 0 mm 2 mps 604 mmHg 94%
    23:00 -17°C° 0 mm 2 mps 604 mmHg 94%

    Day after tomorrow, 25 January, Friday

    Time Temperature Precipitation Wind Pressure Humidity
    00:00 -18°C° 0 mm 2 mps 604 mmHg 93%
    01:00 -18°C° 0 mm 2 mps 604 mmHg 93%
    02:00 -18°C° 0 mm 2 mps 604 mmHg 93%
    03:00 -18°C° 0 mm 2 mps 604 mmHg 93%
    04:00 -17°C° 0 mm 2 mps 604 mmHg 94%
    05:00 -17°C° 0.1 mm 2 mps 604 mmHg 93%
    06:00 -17°C° 0.1 mm 2 mps 604 mmHg 93%
    07:00 -17°C° 0.1 mm 2 mps 605 mmHg 93%
    08:00 -16°C° 0 mm 2 mps 605 mmHg 92%
    09:00 -15°C° 0 mm 2 mps 606 mmHg 90%
    10:00 -14°C° 0 mm 2 mps 606 mmHg 89%
    11:00 -14°C° 0 mm 2 mps 607 mmHg 87%
    12:00 -14°C° 0 mm 3 mps 607 mmHg 85%
    13:00 -13°C° 0 mm 3 mps 607 mmHg 83%
    14:00 -14°C° 0 mm 3 mps 607 mmHg 85%
    15:00 -14°C° 0 mm 3 mps 607 mmHg 87%
    16:00 -15°C° 0 mm 3 mps 607 mmHg 89%
    17:00 -15°C° 0 mm 2 mps 607 mmHg 91%
    18:00 -17°C° 0 mm 2 mps 607 mmHg 92%
    19:00 -19°C° 0 mm 2 mps 607 mmHg 93%
    20:00 -19°C° 0 mm 2 mps 607 mmHg 92%
    21:00 -19°C° 0 mm 2 mps 607 mmHg 91%
    22:00 -20°C° 0 mm 2 mps 608 mmHg 90%
    23:00 -19°C° 0 mm 2 mps 608 mmHg 88%

    26 January, Saturday

    Time Temperature Precipitation Wind Pressure Humidity
    00:00 -19°C° 0 mm 2 mps 608 mmHg 85%
    01:00 -19°C° 0 mm 2 mps 608 mmHg 83%
    02:00 -19°C° 0 mm 2 mps 608 mmHg 78%
    03:00 -19°C° 0 mm 2 mps 608 mmHg 74%
    04:00 -19°C° 0 mm 2 mps 608 mmHg 69%
    05:00 -18°C° 0 mm 2 mps 609 mmHg 67%
    06:00 -18°C° 0 mm 2 mps 609 mmHg 64%
    07:00 -18°C° 0 mm 2 mps 609 mmHg 62%
    08:00 -16°C° 0 mm 2 mps 610 mmHg 63%
    09:00 -14°C° 0 mm 2 mps 611 mmHg 64%
    10:00 -12°C° 0 mm 2 mps 611 mmHg 65%
    11:00 -9°C° 0 mm 2 mps 611 mmHg 62%
    12:00 -7°C° 0 mm 2 mps 611 mmHg 60%
    13:00 -3°C° 0 mm 1 mps 611 mmHg 57%
    14:00 -3°C° 0 mm 1 mps 611 mmHg 62%
    15:00 -4°C° 0 mm 1 mps 610 mmHg 67%
    16:00 -4°C° 0 mm 1 mps 609 mmHg 72%
    17:00 -7°C° 0 mm 1 mps 608 mmHg 67%
    18:00 -8°C° 0 mm 1 mps 608 mmHg 63%
    19:00 -10°C° 0 mm 1 mps 607 mmHg 58%
    20:00 -12°C° 0 mm 2 mps 607 mmHg 58%
    21:00 -12°C° 0 mm 2 mps 606 mmHg 58%
    22:00 -10°C° 0 mm 2 mps 606 mmHg 58%
    23:00 -10°C° 0 mm 2 mps 606 mmHg 60%

    27 January, Sunday

    Time Temperature Precipitation Wind Pressure Humidity
    00:00 -10°C° 0 mm 2 mps 605 mmHg 61%
    01:00 -10°C° 0 mm 2 mps 605 mmHg 63%
    02:00 -10°C° 0 mm 2 mps 604 mmHg 64%
    03:00 -10°C° 0 mm 2 mps 603 mmHg 65%
    04:00 -12°C° 0 mm 2 mps 603 mmHg 66%
    05:00 -12°C° 0 mm 2 mps 602 mmHg 66%
    06:00 -12°C° 0 mm 2 mps 602 mmHg 66%
    07:00 -13°C° 0 mm 2 mps 601 mmHg 66%
    08:00 -10°C° 0 mm 2 mps 602 mmHg 67%
    09:00 -9°C° 0 mm 2 mps 602 mmHg 69%
    10:00 -8°C° 0 mm 2 mps 603 mmHg 70%
    11:00 -6°C° 0 mm 1 mps 603 mmHg 69%
    12:00 -4°C° 0 mm 1 mps 603 mmHg 67%
    13:00 -4°C° 0 mm 1 mps 603 mmHg 65%
    14:00 -4°C° 0.1 mm 1 mps 603 mmHg 74%
    15:00 -6°C° 0.1 mm 2 mps 603 mmHg 82%
    16:00 -7°C° 0.1 mm 2 mps 603 mmHg 90%
    17:00 -7°C° 0.3 mm 2 mps 603 mmHg 92%
    18:00 -8°C° 0.3 mm 2 mps 603 mmHg 94%
    19:00 -9°C° 0.3 mm 2 mps 603 mmHg 95%
    20:00 -9°C° 0.3 mm 2 mps 603 mmHg 95%
    21:00 -10°C° 0.3 mm 2 mps 603 mmHg 95%
    22:00 -10°C° 0.3 mm 2 mps 603 mmHg 95%
    23:00 -12°C° 0.1 mm 2 mps 603 mmHg 95%

    28 January, Monday

    Time Temperature Precipitation Wind Pressure Humidity
    00:00 -11°C° 0.1 mm 1 mps 602 mmHg 94%
    01:00 -12°C° 0.1 mm 1 mps 602 mmHg 94%
    02:00 -12°C° 0.1 mm 1 mps 602 mmHg 93%
    03:00 -13°C° 0.1 mm 1 mps 601 mmHg 92%
    04:00 -13°C° 0.1 mm 1 mps 601 mmHg 91%
    05:00 -13°C° 0.1 mm 1 mps 601 mmHg 90%
    06:00 -13°C° 0.1 mm 1 mps 601 mmHg 90%
    07:00 -14°C° 0.1 mm 1 mps 601 mmHg 89%
    08:00 -12°C° 0.2 mm 1 mps 602 mmHg 89%
    09:00 -11°C° 0.2 mm 1 mps 602 mmHg 89%
    10:00 -10°C° 0.2 mm 1 mps 603 mmHg 89%
    11:00 -9°C° 0.1 mm 1 mps 603 mmHg 88%
    12:00 -8°C° 0.1 mm 1 mps 603 mmHg 88%
    13:00 -9°C° 0.1 mm 2 mps 603 mmHg 87%
    14:00 -9°C° 0.1 mm 2 mps 604 mmHg 89%
    15:00 -8°C° 0.1 mm 2 mps 604 mmHg 90%
    16:00 -8°C° 0.1 mm 2 mps 604 mmHg 91%
    17:00 -10°C° 0.1 mm 2 mps 604 mmHg 93%
    18:00 -12°C° 0.1 mm 2 mps 604 mmHg 94%
    19:00 -11°C° 0.1 mm 1 mps 604 mmHg 96%
    20:00 -12°C° 0 mm 1 mps 604 mmHg 95%
    21:00 -12°C° 0 mm 1 mps 604 mmHg 95%
    22:00 -13°C° 0 mm 1 mps 604 mmHg 95%
    23:00 -15°C° 0 mm 2 mps 604 mmHg 94%
    Show more